When you browse on this site, cookies collect data to enhance your experience and personalize the content and advertising you see.
Visit our Privacy Policy to learn more. By continuing to use the site, you agree to this use of cookies and data.
  • In Hungary
  • List of Countries
  • For 7 days
  • Water Temperature
  • Weather Map
  • News
  • Weather Widgets
  • user-avatar
    Login

    Hourly Weather Genuh

    Today, 13 October, Sunday

    Time Temperature Precipitation Wind Pressure Humidity
    00:00 +1°C° 0 mm 2 mps 593 mmHg 66%
    01:00 +1°C° 0 mm 2 mps 593 mmHg 59%
    02:00 +1°C° 0 mm 2 mps 593 mmHg 52%
    03:00 +1°C° 0 mm 2 mps 593 mmHg 46%
    04:00 +1°C° 0 mm 2 mps 594 mmHg 43%
    05:00 +2°C° 0 mm 1 mps 594 mmHg 40%
    06:00 0°C° 0 mm 0 mps 594 mmHg 36%
    07:00 +3°C° 0 mm 1 mps 595 mmHg 38%
    08:00 +5°C° 0 mm 1 mps 596 mmHg 41%
    09:00 +7°C° 0 mm 1 mps 598 mmHg 42%
    10:00 +8°C° 0 mm 1 mps 598 mmHg 45%
    11:00 +8°C° 0 mm 2 mps 598 mmHg 49%
    12:00 +8°C° 0 mm 2 mps 598 mmHg 52%
    13:00 +9°C° 0 mm 2 mps 598 mmHg 52%
    14:00 +9°C° 0 mm 2 mps 598 mmHg 52%
    15:00 +9°C° 0 mm 2 mps 598 mmHg 53%
    16:00 +8°C° 0 mm 1 mps 597 mmHg 62%
    17:00 +6°C° 0 mm 1 mps 596 mmHg 72%
    18:00 +3°C° 0 mm 0 mps 595 mmHg 82%
    19:00 +3°C° 0 mm 0 mps 595 mmHg 80%
    20:00 +3°C° 0 mm 0 mps 595 mmHg 78%
    21:00 +3°C° 0 mm 0 mps 595 mmHg 76%
    22:00 +3°C° 0 mm 0 mps 595 mmHg 74%
    23:00 +3°C° 0 mm 0 mps 595 mmHg 72%

    Tomorrow, 14 October, Monday

    Time Temperature Precipitation Wind Pressure Humidity
    00:00 +3°C° 0 mm 0 mps 595 mmHg 70%
    01:00 +4°C° 0 mm 1 mps 595 mmHg 66%
    02:00 +4°C° 0 mm 1 mps 595 mmHg 63%
    03:00 +4°C° 0 mm 1 mps 595 mmHg 59%
    04:00 +4°C° 0 mm 1 mps 595 mmHg 55%
    05:00 +4°C° 0 mm 1 mps 595 mmHg 51%
    06:00 +4°C° 0 mm 1 mps 595 mmHg 47%
    07:00 +7°C° 0 mm 1 mps 596 mmHg 43%
    08:00 +10°C° 0 mm 1 mps 598 mmHg 38%
    09:00 +12°C° 0 mm 0 mps 599 mmHg 33%
    10:00 +14°C° 0 mm 1 mps 599 mmHg 34%
    11:00 +14°C° 0 mm 1 mps 599 mmHg 34%
    12:00 +15°C° 0 mm 2 mps 600 mmHg 34%
    13:00 +15°C° 0 mm 2 mps 599 mmHg 36%
    14:00 +15°C° 0 mm 2 mps 599 mmHg 38%
    15:00 +15°C° 0 mm 2 mps 599 mmHg 39%
    16:00 +12°C° 0 mm 1 mps 598 mmHg 48%
    17:00 +10°C° 0 mm 1 mps 596 mmHg 56%
    18:00 +7°C° 0 mm 1 mps 595 mmHg 64%
    19:00 +7°C° 0 mm 1 mps 595 mmHg 61%
    20:00 +6°C° 0 mm 1 mps 595 mmHg 58%
    21:00 +6°C° 0 mm 1 mps 595 mmHg 55%
    22:00 +6°C° 0 mm 1 mps 595 mmHg 51%
    23:00 +5°C° 0 mm 1 mps 594 mmHg 47%

    Day after tomorrow, 15 October, Tuesday

    Time Temperature Precipitation Wind Pressure Humidity
    00:00 +5°C° 0 mm 1 mps 594 mmHg 43%
    01:00 +5°C° 0 mm 1 mps 594 mmHg 42%
    02:00 +5°C° 0 mm 1 mps 594 mmHg 40%
    03:00 +5°C° 0 mm 1 mps 594 mmHg 39%
    04:00 +5°C° 0 mm 1 mps 593 mmHg 38%
    05:00 +5°C° 0 mm 1 mps 593 mmHg 37%
    06:00 +5°C° 0 mm 1 mps 593 mmHg 36%
    07:00 +7°C° 0 mm 1 mps 594 mmHg 33%
    08:00 +10°C° 0 mm 1 mps 595 mmHg 30%
    09:00 +12°C° 0 mm 1 mps 597 mmHg 27%
    10:00 +14°C° 0 mm 1 mps 597 mmHg 26%
    11:00 +15°C° 0 mm 1 mps 597 mmHg 26%
    12:00 +16°C° 0 mm 2 mps 597 mmHg 26%
    13:00 +16°C° 0 mm 2 mps 597 mmHg 28%
    14:00 +15°C° 0 mm 1 mps 596 mmHg 29%
    15:00 +15°C° 0 mm 1 mps 596 mmHg 31%
    16:00 +13°C° 0 mm 1 mps 595 mmHg 38%
    17:00 +11°C° 0 mm 1 mps 594 mmHg 45%
    18:00 +8°C° 0 mm 1 mps 593 mmHg 52%
    19:00 +8°C° 0 mm 1 mps 593 mmHg 50%
    20:00 +8°C° 0 mm 1 mps 593 mmHg 49%
    21:00 +7°C° 0 mm 2 mps 593 mmHg 47%
    22:00 +8°C° 0 mm 1 mps 593 mmHg 46%
    23:00 +7°C° 0 mm 1 mps 592 mmHg 44%

    16 October, Wednesday

    Time Temperature Precipitation Wind Pressure Humidity
    00:00 +7°C° 0 mm 1 mps 592 mmHg 43%
    01:00 +7°C° 0 mm 1 mps 592 mmHg 41%
    02:00 +6°C° 0 mm 2 mps 592 mmHg 39%
    03:00 +6°C° 0 mm 2 mps 592 mmHg 37%
    04:00 +6°C° 0 mm 2 mps 592 mmHg 36%
    05:00 +5°C° 0 mm 2 mps 592 mmHg 35%
    06:00 +5°C° 0 mm 2 mps 592 mmHg 34%
    07:00 +9°C° 0 mm 1 mps 593 mmHg 32%
    08:00 +11°C° 0 mm 1 mps 595 mmHg 30%
    09:00 +13°C° 0 mm 0 mps 596 mmHg 27%
    10:00 +15°C° 0 mm 1 mps 596 mmHg 27%
    11:00 +16°C° 0 mm 1 mps 596 mmHg 27%
    12:00 +16°C° 0 mm 2 mps 596 mmHg 27%
    13:00 +16°C° 0 mm 2 mps 596 mmHg 29%
    14:00 +16°C° 0 mm 2 mps 596 mmHg 32%
    15:00 +15°C° 0 mm 2 mps 596 mmHg 34%
    16:00 +13°C° 0 mm 1 mps 595 mmHg 41%
    17:00 +11°C° 0 mm 1 mps 594 mmHg 49%
    18:00 +7°C° 0 mm 0 mps 593 mmHg 56%
    19:00 +8°C° 0 mm 1 mps 593 mmHg 56%
    20:00 +7°C° 0 mm 1 mps 593 mmHg 55%
    21:00 +7°C° 0 mm 1 mps 593 mmHg 54%
    22:00 +7°C° 0 mm 1 mps 593 mmHg 54%
    23:00 +6°C° 0 mm 1 mps 592 mmHg 54%

    17 October, Thursday

    Time Temperature Precipitation Wind Pressure Humidity
    00:00 +6°C° 0 mm 1 mps 592 mmHg 53%
    01:00 +6°C° 0 mm 1 mps 592 mmHg 53%
    02:00 +5°C° 0 mm 1 mps 592 mmHg 53%
    03:00 +5°C° 0 mm 1 mps 592 mmHg 53%
    04:00 +5°C° 0 mm 1 mps 592 mmHg 54%
    05:00 +5°C° 0 mm 1 mps 592 mmHg 54%
    06:00 +5°C° 0 mm 1 mps 592 mmHg 55%
    07:00 +7°C° 0 mm 1 mps 593 mmHg 49%
    08:00 +10°C° 0 mm 1 mps 594 mmHg 44%
    09:00 +12°C° 0 mm 1 mps 595 mmHg 39%
    10:00 +13°C° 0 mm 2 mps 596 mmHg 37%
    11:00 +14°C° 0 mm 2 mps 596 mmHg 36%
    12:00 +15°C° 0 mm 2 mps 596 mmHg 34%
    13:00 +15°C° 0 mm 2 mps 596 mmHg 35%
    14:00 +15°C° 0 mm 2 mps 595 mmHg 36%
    15:00 +14°C° 0 mm 2 mps 595 mmHg 38%
    16:00 +12°C° 0 mm 1 mps 594 mmHg 46%
    17:00 +10°C° 0 mm 1 mps 593 mmHg 55%
    18:00 +7°C° 0 mm 1 mps 592 mmHg 63%
    19:00 +7°C° 0 mm 1 mps 592 mmHg 62%
    20:00 +7°C° 0 mm 1 mps 592 mmHg 60%
    21:00 +6°C° 0 mm 1 mps 591 mmHg 59%
    22:00 +6°C° 0 mm 1 mps 591 mmHg 59%
    23:00 +6°C° 0 mm 1 mps 591 mmHg 59%

    18 October, Friday

    Time Temperature Precipitation Wind Pressure Humidity
    00:00 +6°C° 0 mm 1 mps 591 mmHg 59%
    01:00 +5°C° 0 mm 1 mps 590 mmHg 60%
    02:00 +5°C° 0 mm 1 mps 590 mmHg 60%
    03:00 +5°C° 0 mm 1 mps 590 mmHg 61%
    04:00 +5°C° 0 mm 1 mps 590 mmHg 60%
    05:00 +5°C° 0 mm 1 mps 590 mmHg 58%
    06:00 +5°C° 0 mm 1 mps 590 mmHg 57%
    07:00 +8°C° 0 mm 1 mps 591 mmHg 50%
    08:00 +10°C° 0 mm 1 mps 592 mmHg 44%
    09:00 +13°C° 0 mm 1 mps 593 mmHg 38%
    10:00 +14°C° 0 mm 1 mps 594 mmHg 35%
    11:00 +15°C° 0 mm 1 mps 594 mmHg 33%
    12:00 +16°C° 0 mm 1 mps 594 mmHg 31%
    13:00 +16°C° 0 mm 1 mps 594 mmHg 32%
    14:00 +16°C° 0 mm 1 mps 594 mmHg 33%
    15:00 +16°C° 0 mm 1 mps 593 mmHg 34%
    16:00 +14°C° 0 mm 1 mps 592 mmHg 41%
    17:00 +11°C° 0 mm 1 mps 591 mmHg 47%
    18:00 +8°C° 0 mm 2 mps 590 mmHg 54%
    19:00 +8°C° 0 mm 2 mps 590 mmHg 50%
    20:00 +8°C° 0 mm 2 mps 590 mmHg 46%
    21:00 +7°C° 0 mm 2 mps 590 mmHg 42%
    22:00 +8°C° 0 mm 1 mps 590 mmHg 41%
    23:00 +8°C° 0 mm 1 mps 590 mmHg 40%
    Show more